This demonstration page uses our WeatherBlox Daily Observations layout. Learn more.

Left ArrowRight Arrow

39.08367, -84.50855

Hourly Observations for January 2, 2015

Temp ( °F °C ) Dew Point ( °F °C ) Humidity (%) Winds ( mph kmh ) Pressure ( in mb ) Visibility ( mi km ) Precip ( " mm )
12:53 am 00:53 Clear 28 -2.2 21 -6.1 75 75 SSW 9 15 30.26 1025 10 16.0934 0 0
1:53 am 01:53 Clear 29 -1.7 22 -5.6 75 75 SW 6 9 30.26 1025 10 16.0934 0 0
2:53 am 02:53 Mostly Clear 30 -1.1 22 -5.6 72 72 WSW 5 7 30.28 1026 10 16.0934 0 0
3:53 am 03:53 Clear 28 -2.2 22 -5.6 78 78 SW 5 7 30.3 1026 10 16.0934 0 0
4:53 am 04:53 Partly Cloudy 28 -2.2 23 -5 81 81 Calm 30.29 1026 10 16.0934 0 0
5:53 am 05:53 Cloudy 30 -1.1 26 -3.3 85 85 SSE 3 6 30.3 1026 10 16.0934 0 0
6:53 am 06:53 Cloudy 31 -0.6 25 -3.9 79 79 Calm 30.31 1026 10 16.0934 0 0
7:53 am 07:53 Cloudy 32 0 26 -3.3 79 79 Calm 30.33 1027 10 16.0934 0 0
8:53 am 08:53 Cloudy 33 0.6 27 -2.8 78 78 Calm 30.36 1028 10 16.0934 0 0
9:53 am 09:53 Cloudy 35 1.7 27 -2.8 72 72 Calm 30.37 1028 10 16.0934 0 0
10:53 am 10:53 Cloudy 36 2.2 27 -2.8 70 70 WSW 7 11 30.38 1029 10 16.0934 0 0
11:53 am 11:53 Cloudy 37 2.8 28 -2.2 70 70 SSW 5 7 30.37 1029 10 16.0934 0 0
12:53 pm 12:53 Cloudy 38 3.3 28 -2.2 68 68 SW 6 9 30.35 1028 10 16.0934 0 0
1:53 pm 13:53 Cloudy 38 3.3 28 -2.2 68 68 S 6 9 30.34 1027 10 16.0934 0 0
2:53 pm 14:53 Cloudy 38 3.3 28 -2.2 68 68 SSW 6 9 30.34 1027 10 16.0934 0 0
3:53 pm 15:53 Cloudy 38 3.3 29 -1.7 70 70 S 7 11 30.35 1028 10 16.0934 0 0
4:53 pm 16:53 Cloudy 37 2.8 30 -1.1 76 76 SSE 5 7 30.35 1028 10 16.0934 0 0
5:19 pm 17:19 Cloudy 37 2.8 30 -1.1 76 76 SSE 3 6 30.33 1027 10 16.0934 0 0
5:53 pm 17:53 Cloudy 37 2.8 30 -1.1 76 76 S 5 7 30.37 1028 10 16.0934 0 0
6:53 pm 18:53 Cloudy 37 2.8 30 -1.1 76 76 VRB 3 6 30.37 1029 10 16.0934 0 0
7:53 pm 19:53 Cloudy 37 2.8 31 -0.6 79 79 Calm 30.37 1028 10 16.0934 0 0
8:53 pm 20:53 Cloudy 36 2.2 31 -0.6 82 82 NNE 3 6 30.35 1028 10 16.0934 0 0
9:53 pm 21:53 Cloudy 36 2.2 31 -0.6 82 82 VRB 5 7 30.32 1027 10 16.0934 0 0
10:53 pm 22:53 Cloudy 37 2.8 31 -0.6 79 79 ESE 3 6 30.31 1027 9 14.48406 0 0
11:53 pm 23:53 Cloudy 36 2.2 32 0 86 86 Calm 30.29 1026 10 16.0934 0 0.0254

Powered by AerisWeather